星链-34868(STARLINK-34868)

导读

STARLINK-34868是美国SpaceX星链(Starlink)星座的一颗卫星,于2025年9月18日发射升空。作为星链互联网星座组网卫星,它将助力构建全球覆盖的低轨卫星互联网,为偏远地区等用户提供高速宽带接入服务,进一步扩充星链星座规模,强化星座的全球服务能力。

基本信息
目录编号:
65648
目录名称:
STARLINK-34868
国际标识:
2025-210AC
轨道中心:
EARTH
卫星名称:
星链-34868
卫星全名:
星链-34868(STARLINK-34868)
卫星状态:
在轨 (已飞行360 天)
发射日期:
2025-09-18 UTC
国别 :
美国 (US)
星等 :
--
该卫星已列入 空间交会检测服务 Space Conjunction Data Service (SCDS) ,当前飞行风险评估等级: 无高风险
轨道信息
数据来源 国际轨道数据 AOE轨道数据
星历时间 2026-09-12T07:59:11+0800
1天前
查看轨道信息
2026-09-11T23:00:00+0800
1天前
查看轨道信息
半长轴 6840.883km 6840.772km
偏心率 0.0001481 0.0001157
轨道倾角 53.159° 53.158°
近地点辐角 68.430° 76.425°
升交点赤经 157.600° 159.345°
平近点角 291.685° 14.306°
近地点 461.732km 461.843km
远地点 463.76km 463.427km
周期 93.849分钟 93.846分钟
每日圈数 15.343858 15.34423
详细信息
固有亮度:
5
最大亮度:
2.5
卫星平台:
Starlink V1.0
覆盖范围:
全球
运营商:
太空探索技术公司
运营商所在国:
美国
制造商(研发单位):
太空探索技术公司
制造商所在国:
美国
使用方式:
暂无
卫星简介
Starlink 计划是 SpaceX 推出的全球卫星互联网项目,通过发射低轨道卫星,为全球尤其是偏远地区提供高速、低延迟的互联网服务。自 2019 年起,Starlink 已部署数千颗卫星,旨在缩小全球数字鸿沟,推动互联网普及。该项目还为军事、航空等行业提供通信支持,带来广泛经济效益。
2D轨道图
3D轨道图
轨道高度分析图
轨道倾角分析图
轨道综合分析图
查看轨道综合分析图
与全量物体交会距离演化趋势
与全量物体交会风险概率演化趋势